| time (UTC) | temp F | wind direction | speed MPH | gust MPH | rain 1hr in | rain 24hr in | rain mn in | humidity % | barometer mb |
| 20260506014543 | 30 | 360 | 0.0 | 2.0 | 0.00 | 0.01 | 0.00 | 100 | 1004.5 |
| 20260506013047 | 30 | 360 | 0.0 | 6.0 | 0.00 | 0.01 | 0.00 | 100 | 1004.4 |
| 20260506011621 | 30 | 360 | 2.0 | 5.0 | 0.00 | 0.01 | 0.00 | 100 | 1004.3 |
| 20260506010120 | 30 | 360 | 3.0 | 6.0 | 0.00 | 0.01 | 0.00 | 100 | 1004.2 |
| 20260506004549 | 30 | 360 | 5.0 | 8.0 | 0.00 | 0.01 | 0.00 | 100 | 1004.2 |
| 20260506003049 | 30 | 360 | 4.0 | 7.0 | 0.00 | 0.01 | 0.00 | 99 | 1004.1 |
| 20260506001601 | 30 | 360 | 5.0 | 7.0 | 0.00 | 0.01 | 0.00 | 99 | 1004.1 |
| 20260506000051 | 30 | 360 | 5.0 | 8.0 | 0.00 | 0.01 | 0.00 | 99 | 1004.0 |
| 20260505234553 | 30 | 360 | 4.0 | 7.0 | 0.00 | 0.01 | 0.00 | 100 | 1003.9 |
| 20260505233054 | 30 | 360 | 3.0 | 5.0 | 0.00 | 0.01 | 0.00 | 100 | 1003.8 |
| 20260505231549 | 30 | 360 | 3.0 | 5.0 | 0.00 | 0.01 | 0.00 | 99 | 1003.8 |
| 20260505230052 | 30 | 360 | 3.0 | 6.0 | 0.00 | 0.01 | 0.00 | 99 | 1003.7 |
| 20260505224558 | 30 | 360 | 4.0 | 6.0 | 0.00 | 0.01 | 0.00 | 100 | 1003.7 |
| 20260505223042 | 30 | 360 | 5.0 | 7.0 | 0.00 | 0.01 | 0.00 | 100 | 1003.7 |
| 20260505221603 | 30 | 360 | 5.0 | 7.0 | 0.00 | 0.01 | 0.00 | 100 | 1003.6 |
| 20260505220106 | 30 | 360 | 6.0 | 8.0 | 0.00 | 0.01 | 0.00 | 100 | 1003.5 |
| 20260505214551 | 30 | 360 | 4.0 | 8.0 | 0.00 | 0.01 | 0.01 | 99 | 1003.5 |
| 20260505213045 | 30 | 360 | 5.0 | 8.0 | 0.00 | 0.01 | 0.01 | 99 | 1003.5 |
| 20260505211555 | 30 | 360 | 6.0 | 9.0 | 0.00 | 0.01 | 0.01 | 100 | 1003.5 |
| 20260505210057 | 30 | 360 | 5.0 | 10.0 | 0.00 | 0.01 | 0.01 | 99 | 1003.4 |
| 20260505204603 | 30 | 360 | 4.0 | 6.0 | 0.00 | 0.01 | 0.01 | 99 | 1003.3 |
| 20260505203106 | 30 | 360 | 7.0 | 10.0 | 0.00 | 0.01 | 0.01 | 99 | 1003.2 |
| 20260505201547 | 30 | 360 | 7.0 | 12.0 | 0.00 | 0.01 | 0.01 | 100 | 1003.2 |
| 20260505200050 | 30 | 360 | 6.0 | 8.0 | 0.00 | 0.01 | 0.01 | 99 | 1003.2 |
| 20260505194603 | 30 | 360 | 5.0 | 8.0 | 0.00 | 0.01 | 0.01 | 99 | 1003.0 |
| 20260505193058 | 30 | 360 | 5.0 | 7.0 | 0.00 | 0.01 | 0.01 | 99 | 1003.0 |
| 20260505191550 | 30 | 360 | 7.0 | 9.0 | 0.00 | 0.01 | 0.01 | 99 | 1003.0 |
| 20260505190055 | 30 | 360 | 4.0 | 6.0 | 0.00 | 0.01 | 0.01 | 99 | 1003.0 |
| 20260505184504 | 30 | 360 | 4.0 | 6.0 | 0.00 | 0.01 | 0.01 | 99 | 1002.9 |
| 20260505183005 | 30 | 360 | 3.0 | 5.0 | 0.00 | 0.01 | 0.01 | 99 | 1002.8 |
| 20260505181552 | 30 | 360 | 4.0 | 7.0 | 0.00 | 0.01 | 0.01 | 99 | 1002.7 |
| 20260505180058 | 30 | 360 | 7.0 | 9.0 | 0.00 | 0.01 | 0.01 | 99 | 1002.6 |
| 20260505174547 | 30 | 360 | 5.0 | 8.0 | 0.00 | 0.01 | 0.01 | 99 | 1002.6 |
| 20260505173051 | 31 | 360 | 6.0 | 8.0 | 0.00 | 0.01 | 0.01 | 99 | 1002.4 |
| 20260505171503 | 31 | 360 | 3.0 | 6.0 | 0.00 | 0.01 | 0.01 | 99 | 1002.3 |
| 20260505170000 | 31 | 360 | 6.0 | 9.0 | 0.00 | 0.01 | 0.01 | 99 | 1002.2 |
| 20260505164557 | 31 | 360 | 3.0 | 8.0 | 0.00 | 0.01 | 0.01 | 99 | 1002.2 |
| 20260505163049 | 31 | 360 | 4.0 | 8.0 | 0.00 | 0.01 | 0.01 | 99 | 1001.9 |
| 20260505161601 | 31 | 360 | 7.0 | 12.0 | 0.00 | 0.01 | 0.01 | 99 | 1001.8 |
| 20260505153110 | 32 | 360 | 11.0 | 15.0 | 0.00 | 0.01 | 0.01 | 97 | 1001.6 |
| 20260505151545 | 32 | 360 | 6.0 | 11.0 | 0.00 | 0.01 | 0.01 | 97 | 1001.5 |
| 20260505124502 | 33 | 360 | 4.0 | 7.0 | 0.01 | 0.01 | 0.01 | 92 | 1000.6 |
| 20260505123001 | 32 | 360 | 4.0 | 8.0 | 0.01 | 0.01 | 0.01 | 92 | 1000.6 |
| 20260505121550 | 32 | 360 | 7.0 | 12.0 | 0.01 | 0.01 | 0.01 | 95 | 1000.3 |
| 20260505120104 | 31 | 360 | 9.0 | 19.0 | 0.01 | 0.01 | 0.01 | 96 | 1000.3 |
| 20260505114546 | 33 | 360 | 15.0 | 18.0 | 0.00 | 0.00 | 0.00 | 89 | 1000.5 |
| 20260505113110 | 34 | 360 | 5.0 | 9.0 | 0.00 | 0.00 | 0.00 | 86 | 1000.0 |
| 20260505111546 | 33 | 360 | 4.0 | 10.0 | 0.00 | 0.00 | 0.00 | 90 | 999.8 |
| 20260505101600 | 33 | 360 | 9.0 | 15.0 | 0.00 | 0.00 | 0.00 | 90 | 999.5 |
| 20260505100055 | 33 | 360 | 9.0 | 13.0 | 0.00 | 0.00 | 0.00 | 87 | 999.3 |
| 20260505094501 | 32 | 360 | 9.0 | 14.0 | 0.00 | 0.01 | 0.00 | 86 | 999.2 |
| 20260505093105 | 32 | 360 | 10.0 | 13.0 | 0.00 | 0.01 | 0.00 | 89 | 999.1 |
| 20260505091502 | 33 | 360 | 12.0 | 16.0 | 0.00 | 0.01 | 0.00 | 88 | 999.4 |
| 20260505090058 | 33 | 360 | 9.0 | 14.0 | 0.00 | 0.01 | 0.00 | 88 | 999.0 |
| 20260505084551 | 32 | 360 | 9.0 | 12.0 | 0.00 | 0.01 | 0.00 | 91 | 998.9 |
| 20260505083002 | 31 | 360 | 6.0 | 11.0 | 0.00 | 0.01 | 0.00 | 93 | 998.8 |
| 20260505081553 | 31 | 360 | 6.0 | 10.0 | 0.00 | 0.01 | 0.00 | 93 | 998.8 |
| 20260505080048 | 31 | 360 | 4.0 | 7.0 | 0.00 | 0.01 | 0.00 | 94 | 998.8 |
| 20260505074556 | 31 | 360 | 4.0 | 6.0 | 0.00 | 0.01 | 0.00 | 94 | 998.6 |
| 20260505073100 | 31 | 360 | 1.0 | 5.0 | 0.00 | 0.01 | 0.00 | 95 | 998.6 |
| 20260505071501 | 31 | 360 | 1.0 | 4.0 | 0.00 | 0.01 | 0.00 | 95 | 998.5 |
| 20260505070100 | 31 | 360 | 1.0 | 3.0 | 0.00 | 0.01 | 0.00 | 97 | 998.5 |
| 20260505064557 | 30 | 360 | 1.0 | 3.0 | 0.00 | 0.02 | 0.00 | 97 | 998.4 |
| 20260505063046 | 30 | 360 | 2.0 | 6.0 | 0.00 | 0.02 | 0.00 | 97 | 998.3 |
| 20260505061557 | 30 | 360 | 3.0 | 6.0 | 0.00 | 0.02 | 0.00 | 97 | 998.3 |
| 20260505060058 | 29 | 360 | 2.0 | 7.0 | 0.00 | 0.02 | 0.00 | 98 | 998.3 |
| 20260505054501 | 29 | 360 | 5.0 | 8.0 | 0.00 | 0.02 | 0.00 | 96 | 998.2 |
| 20260505053116 | 29 | 360 | 3.0 | 7.0 | 0.00 | 0.02 | 0.00 | 97 | 998.1 |
| 20260505051548 | 29 | 360 | 3.0 | 12.0 | 0.00 | 0.02 | 0.00 | 96 | 998.1 |
| 20260505041557 | 29 | 360 | 9.0 | 14.0 | 0.00 | 0.02 | 0.00 | 97 | 997.8 |
| 20260505040055 | 29 | 360 | 6.0 | 10.0 | 0.00 | 0.02 | 0.00 | 97 | 997.8 |
| 20260505034542 | 29 | 360 | 7.0 | 11.0 | 0.00 | 0.02 | 0.00 | 97 | 997.9 |
| 20260505033107 | 29 | 360 | 6.0 | 8.0 | 0.00 | 0.02 | 0.00 | 97 | 997.8 |
| 20260505033029 | 29 | 360 | 6.0 | 8.0 | 0.00 | 0.02 | 0.00 | 96 | 997.8 |
| 20260505031550 | 30 | 360 | 4.0 | 6.0 | 0.00 | 0.02 | 0.00 | 97 | 997.8 |
| 20260505030004 | 30 | 360 | 5.0 | 7.0 | 0.00 | 0.02 | 0.00 | 97 | 997.8 |
| 20260505024549 | 29 | 360 | 5.0 | 8.0 | 0.00 | 0.02 | 0.00 | 98 | 997.7 |
| 20260505023050 | 29 | 360 | 4.0 | 6.0 | 0.00 | 0.02 | 0.00 | 98 | 997.7 |
| 20260505021558 | 29 | 360 | 3.0 | 5.0 | 0.00 | 0.02 | 0.00 | 99 | 997.7 |
| 20260505020055 | 29 | 360 | 3.0 | 5.0 | 0.00 | 0.02 | 0.00 | 99 | 997.7 |